Date String (YYYY-MM-DD hh:mm:ss) UTC,Instrument flags,Ambient pressure (hPa),Sample flow (lpm),Bypass flow (lpm),Sample temperature (°C),Ambient temperature (°C),ASC tube jacket temperature (°C),LED temperature (°C),Box temperature (°C),Sample RH (%),Span deviation,Mass concentration (μg/m³),Mass concentration (μg/m³),Mass concentration (μg/m³)
DateTimeUTC,F1_M11,P_M11,Q1_M11,Q2_M11,T1_M11,T2_M11,T3_M11,T4_M11,T5_M11,U1_M11,ZSPAN_M11,X0_M11,X2_M11,X1_M11
2021-10-30 11:00:00,,0823.8,4.98,0.00,28.5,27.7,00.0,37.5,30.4,09.0,0000.0,0001.69,0000.52,0000.43
2021-10-30 11:01:00,,0823.8,5.01,0.00,28.5,27.7,00.0,37.5,30.4,09.1,0000.0,0001.73,0000.51,0000.43
2021-10-30 11:02:00,,0823.8,4.99,0.00,28.5,27.7,00.0,37.5,30.3,09.1,0000.0,0002.08,0000.51,0000.43
2021-10-30 11:03:00,,0823.8,5.00,0.00,28.5,27.6,00.0,37.5,30.3,09.1,0000.0,0002.06,0000.50,0000.42
2021-10-30 11:04:00,,0823.8,5.00,0.00,28.5,27.6,00.0,37.5,30.3,09.2,0000.0,0002.01,0000.49,0000.42
2021-10-30 11:05:00,,0823.9,5.00,0.00,28.5,27.6,00.0,37.5,30.3,09.2,0000.0,0002.06,0000.51,0000.43
2021-10-30 11:06:00,,0823.8,5.00,0.00,28.5,27.6,00.0,37.5,30.3,09.2,0000.0,0002.15,0000.54,0000.43
2021-10-30 11:07:00,,0823.8,5.01,0.00,28.5,27.6,00.0,37.5,30.3,09.1,0000.0,0001.58,0000.51,0000.43
2021-10-30 11:08:00,,0823.8,4.99,0.00,28.5,27.6,00.0,37.5,30.3,09.1,0000.0,0001.34,0000.51,0000.43
2021-10-30 11:09:00,,0823.8,5.01,0.00,28.5,27.6,00.0,37.5,30.3,09.1,0000.0,0001.41,0000.52,0000.44
2021-10-30 11:10:00,,0823.8,4.99,0.00,28.5,27.7,00.0,37.5,30.3,09.1,0000.0,0001.52,0000.55,0000.44
2021-10-30 11:11:00,,0823.8,5.00,0.00,28.5,27.7,00.0,37.5,30.3,09.1,0000.0,0001.33,0000.57,0000.45
2021-10-30 11:12:00,,0823.8,5.00,0.00,28.5,27.7,00.0,37.5,30.4,09.2,0000.0,0001.37,0000.58,0000.45
2021-10-30 11:13:00,,0823.9,5.02,0.00,28.5,27.7,00.0,37.5,30.3,09.1,0000.0,0001.11,0000.60,0000.45
2021-10-30 11:14:00,,0823.8,4.99,0.00,28.5,27.7,00.0,37.5,30.3,09.1,0000.0,0001.27,0000.62,0000.45
2021-10-30 11:15:00,,0823.8,5.00,0.00,28.5,27.7,00.0,37.5,30.3,09.1,0000.0,0001.36,0000.64,0000.45
2021-10-30 11:16:00,,0823.8,4.98,0.00,28.6,27.7,00.0,37.5,30.3,09.1,0000.0,0001.31,0000.62,0000.45
2021-10-30 11:17:00,,0823.8,5.01,0.00,28.6,27.7,00.0,37.6,30.4,09.1,0000.0,0001.28,0000.61,0000.45
2021-10-30 11:18:00,,0823.8,4.99,0.00,28.6,27.7,00.0,37.6,30.4,09.1,0000.0,0001.32,0000.63,0000.46
2021-10-30 11:19:00,,0823.8,5.00,0.00,28.6,27.7,00.0,37.6,30.4,09.1,0000.0,0001.32,0000.63,0000.46
2021-10-30 11:20:00,,0823.8,5.00,0.00,28.6,27.7,00.0,37.6,30.3,09.1,0000.0,0001.25,0000.62,0000.46
2021-10-30 11:21:00,,0823.8,5.00,0.00,28.6,27.7,00.0,37.6,30.4,09.1,0000.0,0001.15,0000.60,0000.46
2021-10-30 11:22:00,,0823.8,5.00,0.00,28.6,27.7,00.0,37.6,30.4,09.2,0000.0,0001.11,0000.59,0000.45
2021-10-30 11:23:00,,0823.8,5.00,0.00,28.6,27.7,00.0,37.6,30.4,09.2,0000.0,0001.12,0000.59,0000.45
2021-10-30 11:24:00,,0823.8,4.99,0.00,28.6,27.7,00.0,37.6,30.4,09.2,0000.0,0001.04,0000.59,0000.46
2021-10-30 11:25:00,,0823.8,5.01,0.00,28.6,27.7,00.0,37.6,30.4,09.2,0000.0,0000.86,0000.56,0000.46
2021-10-30 11:26:00,,0823.8,5.00,0.00,28.6,27.7,00.0,37.6,30.4,09.2,0000.0,0000.82,0000.54,0000.46
2021-10-30 11:27:00,,0823.8,5.00,0.00,28.6,27.7,00.0,37.6,30.4,09.1,0000.0,0000.98,0000.55,0000.46
2021-10-30 11:28:00,,0823.7,5.01,0.00,28.6,27.7,00.0,37.6,30.4,09.0,0000.0,0001.02,0000.53,0000.45
2021-10-30 11:29:00,,0823.7,4.99,0.00,28.6,27.7,00.0,37.6,30.4,09.0,0000.0,0000.98,0000.51,0000.45
2021-10-30 11:30:00,,0823.7,5.00,0.00,28.6,27.7,00.0,37.6,30.4,09.0,0000.0,0000.97,0000.51,0000.45
2021-10-30 11:31:00,,0823.7,4.99,0.00,28.6,27.7,00.0,37.6,30.4,09.1,0000.0,0000.98,0000.51,0000.45
2021-10-30 11:32:00,,0823.7,5.01,0.00,28.6,27.7,00.0,37.6,30.4,09.1,0000.0,0001.04,0000.53,0000.44
2021-10-30 11:33:00,,0823.6,4.99,0.00,28.6,27.7,00.0,37.6,30.4,09.1,0000.0,0001.06,0000.53,0000.44
2021-10-30 11:34:00,,0823.7,5.01,0.00,28.6,27.7,00.0,37.6,30.4,09.3,0000.0,0001.01,0000.52,0000.44
2021-10-30 11:35:00,,0823.7,5.00,0.00,28.6,27.7,00.0,37.6,30.3,09.3,0000.0,0001.04,0000.51,0000.43
2021-10-30 11:36:00,,0823.7,5.00,0.00,28.6,27.6,00.0,37.6,30.3,09.3,0000.0,0001.13,0000.52,0000.44
2021-10-30 11:37:00,,0823.7,5.00,0.00,28.5,27.6,00.0,37.6,30.2,09.3,0000.0,0001.26,0000.56,0000.44
2021-10-30 11:38:00,,0823.7,5.00,0.00,28.5,27.6,00.0,37.6,30.2,09.4,0000.0,0001.13,0000.55,0000.45
2021-10-30 11:39:00,,0823.7,5.01,0.00,28.5,27.6,00.0,37.6,30.2,09.4,0000.0,0001.10,0000.56,0000.45
2021-10-30 11:40:00,,0823.7,4.99,0.00,28.5,27.6,00.0,37.6,30.2,09.3,0000.0,0001.06,0000.56,0000.45
2021-10-30 11:41:00,,0823.7,5.00,0.00,28.5,27.6,00.0,37.6,30.2,09.2,0000.0,0001.05,0000.55,0000.45
2021-10-30 11:42:00,,0823.7,4.99,0.00,28.5,27.5,00.0,37.6,30.2,09.2,0000.0,0001.05,0000.55,0000.44
2021-10-30 11:43:00,,0823.7,4.98,0.00,28.5,27.5,00.0,37.6,30.2,09.3,0000.0,0001.03,0000.54,0000.44
2021-10-30 11:44:00,,0823.7,5.00,0.00,28.5,27.6,00.0,37.6,30.3,09.2,0000.0,0001.00,0000.54,0000.44
2021-10-30 11:45:00,,0823.7,5.01,0.00,28.5,27.5,00.0,37.6,30.2,09.2,0000.0,0001.00,0000.53,0000.44
2021-10-30 11:46:00,,0823.6,5.00,0.00,28.5,27.5,00.0,37.6,30.2,09.1,0000.0,0000.93,0000.51,0000.44
2021-10-30 11:47:00,,0823.7,5.00,0.00,28.5,27.5,00.0,37.6,30.2,09.2,0000.0,0000.92,0000.53,0000.44
2021-10-30 11:48:00,,0823.8,5.00,0.00,28.5,27.5,00.0,37.6,30.2,09.2,0000.0,0000.88,0000.53,0000.45
2021-10-30 11:49:00,,0823.7,5.00,0.00,28.5,27.5,00.0,37.6,30.2,09.2,0000.0,0000.79,0000.50,0000.43
2021-10-30 11:50:00,,0823.8,5.01,0.00,28.5,27.5,00.0,37.6,30.2,09.2,0000.0,0000.77,0000.50,0000.43
2021-10-30 11:51:00,,0823.8,5.00,0.00,28.5,27.5,00.0,37.6,30.2,09.2,0000.0,0000.79,0000.50,0000.43
2021-10-30 11:52:00,,0823.8,5.01,0.00,28.5,27.5,00.0,37.6,30.2,09.2,0000.0,0000.81,0000.52,0000.44
2021-10-30 11:53:00,,0823.9,4.99,0.00,28.5,27.5,00.0,37.6,30.2,09.2,0000.0,0000.83,0000.53,0000.44
2021-10-30 11:54:00,,0823.9,5.01,0.00,28.5,27.5,00.0,37.6,30.2,09.3,0000.0,0000.94,0000.52,0000.44
2021-10-30 11:55:00,,0823.9,4.99,0.00,28.5,27.6,00.0,37.6,30.2,09.3,0000.0,0001.13,0000.53,0000.44
2021-10-30 11:56:00,,0823.8,5.00,0.00,28.5,27.6,00.0,37.6,30.2,09.3,0000.0,0001.23,0000.55,0000.44
2021-10-30 11:57:00,,0823.8,5.00,0.00,28.5,27.5,00.0,37.6,30.3,09.2,0000.0,0001.25,0000.56,0000.45
2021-10-30 11:58:00,,0823.7,5.00,0.00,28.5,27.6,00.0,37.6,30.3,09.3,0000.0,0001.14,0000.53,0000.44
2021-10-30 11:59:00,,0823.8,5.00,0.00,28.6,27.6,00.0,37.6,30.3,09.2,0000.0,0001.05,0000.50,0000.44
